Regional Weather Roundup
Issued by NWS Green Bay, WI

Home | Current Version | Previous Version | Graphics & Text | Print | Product List | Glossary Off
Versions: 1 2 3 4 5 6 7 8 9 10 11 12 13 14 15 16 17 18 19 20 21 22 23 24 25 26 27 28 29 30 31 32 33 34 35 36 37 38 39 40 41 42 43 44 45 46 47 48 49 50

000
ASUS43 KGRB 240210
RWRGRB

NORTH-CENTRAL AND NORTHEAST WISCONSIN REGIONAL WEATHER ROUNDUP
NATIONAL WEATHER SERVICE GREEN BAY WI
900 PM CDT WED APR 23 2014

WIZ005-009-010>012-018-019-240300-
NORTH CENTRAL WISCONSIN

CITY           SKY/WX    TMP DP  RH WIND       PRES   REMARKS
IRONWOOD       CLOUDY    48  21  34 SE5       29.98R
MANITOWISH WTR CLOUDY    45  25  44 S5        30.02R
ARBOR VITAE    CLOUDY    47  21  36 S3        30.03R
EAGLE RIVER    CLOUDY    45  19  35 S3        30.03S
LAND O LAKES   CLOUDY    43  19  39 SE3       30.03S
RHINELANDER    CLOUDY    45  20  36 S9        30.04S
PHILLIPS       CLOUDY    46  27  47 SE8       30.01R
ANTIGO         CLOUDY    42  16  35 SE9       30.05F
TOMAHAWK       CLOUDY    45  24  43 CALM      30.03R
MERRILL        CLOUDY    45  23  42 SE9G16    30.03F
$$

WIZ013-073-240300-
NORTHEAST WISCONSIN

CITY           SKY/WX    TMP DP  RH WIND       PRES   REMARKS
IRON MOUNTAIN  CLOUDY    44  15  31 SE7       30.07F
MARINETTE      CLOUDY    41  14  33 S5        30.11S
OCONTO         CLOUDY    38  19  44 SE3       30.11S
$$

WIZ017-030-035>037-045-240300-
CENTRAL WISCONSIN

CITY           SKY/WX    TMP DP  RH WIND       PRES   REMARKS
MEDFORD        CLOUDY    45  25  46 SE6       30.01R
WAUSAU         CLOUDY    46  22  38 E13       30.02F
MOSINEE        CLOUDY    45  25  45 E10       30.03F
MARSHFIELD     CLOUDY    46  26  45 SE10      30.01S
WISC RAPIDS    CLOUDY    47  27  45 E12       30.03F
STEVENS POINT  CLOUDY    45  26  47 E9        30.03F
WAUPACA        CLOUDY    46  25  42 E14       30.07S
SHAWANO        CLOUDY    44  16  32 E7        30.10S
CLINTONVILLE   CLOUDY    43  21  42 E8        30.08S
$$

WIZ038-039-048-051-240300-
FOX VALLEY

CITY           SKY/WX    TMP DP  RH WIND       PRES   REMARKS
NWS GREEN BAY  CLOUDY    43   8  23 E9        30.10F
APPLETON       MOCLDY    45  16  31 E8        30.09F
OSHKOSH        CLOUDY    43  17  35 E8        30.07F
FOND DU LAC    CLOUDY    43  19  38 SE10      30.07F
$$

WIZ022-050-052-240300-
EAST CENTRAL WISCONSIN

CITY           SKY/WX    TMP DP  RH WIND       PRES   REMARKS
STURGEON BAY   CLOUDY    39  14  35 S5        30.12F
MANITOWOC      CLOUDY    39  14  36 E3        30.12F
SHEBOYGAN      CLOUDY    38  14  37 E7        30.10F
$$

LMZ563-521-522-541>543-240300-
LAKESHORE

STATION/POSITION TIME  TEMP    WIND        PRES    VSBY  WAVE
                       AIR SEA DIR/SP/G                  HT/PER
                 (UTC) (F)     (DEG/KT/KT) (MB)    (MI)  (FT/S)
SHEBOYGAN LKSHOR 0200   38      50/  6/  7 1020.4F
KEWAUNEE LKSHORE 0200   39     330/  1/  2 1020.5F
NORTHPORT PIER   0200   39     170/  2/  4 1020.0S
SISTER BAY LKSHO 0100   41        CALM       N/A
MENOMINEE LKSHOR 0200   38     150/  9/  9 1020.3F
$$



USA.gov is the U.S. government's official web portal to all federal, state and local government web resources and services.